星链-34574 (STARLINK-34574)

导读 | 星芒AI

STARLINK-34574 是 SpaceX Starlink 卫星互联网项目中的一颗低轨卫星,属于第6批部署的星链卫星之一。该卫星于2023年发射,运行在约550公里高度的近地轨道,旨在为全球用户提供高速互联网服务。Starlink 项目致力于通过卫星网络改善偏远地区的网络接入,提升全球通信能力。STARLINK-34574 采用先进推进系统和激光通信技术,支持高效数据传输,并具备自主避障功能,以确保轨道安全。

基本信息
目录编号:
64714
目录名称:
STARLINK-34574
国际标识:
2025-142U
轨道中心:
EARTH
卫星名称:
星链-34574
卫星全名:
星链-34574 (STARLINK-34574)
卫星状态:
在轨 (已飞行124 天)
发射日期:
2025-06-28 UTC
国别 :
美国 (US)
星等 :
--
轨道信息
数据来源 国际轨道数据
星历时间: 2025-10-30T14:28:09+0800
12小时前
查看轨道信息
半长轴: 6950.171km
偏心率: 0.0003188
轨道倾角: 70.001°
近地点辐角 271.344°
升交点赤经 283.337°
平近点角 88.736°
近地点: 569.82km
远地点: 574.252km
周期: 96.107分钟
每日圈数: 14.983373
详细信息
固有亮度:
5
最大亮度:
2.5
卫星平台:
Starlink V1.0
覆盖范围:
全球
运营商:
太空探索技术公司
运营商所在国:
美国
制造商(研发单位):
太空探索技术公司
制造商所在国:
美国
使用方式:
暂无
卫星简介
Starlink 计划是 SpaceX 推出的全球卫星互联网项目,通过发射低轨道卫星,为全球尤其是偏远地区提供高速、低延迟的互联网服务。自 2019 年起,Starlink 已部署数千颗卫星,旨在缩小全球数字鸿沟,推动互联网普及。该项目还为军事、航空等行业提供通信支持,带来广泛经济效益。
2D轨道图
3D轨道图
轨道高度分析图
轨道倾角分析图
轨道综合分析图
查看轨道综合分析图